Location: Camp Crooked Creek
(37.9149°N, 85.6607°W)
Time: 02:41:41
(UTC-05:00)

Amateur Radio Satellites - All Passes

Search period start: 28 February 2017 02:11
Search period end: 01 March 2017 02:11
Location: Camp Crooked Creek, 37.9149°N, 85.6607°W

Satellite Date Start Highest point End Downlink Frequencies (MHz)
Time Altitude Azimuth
Oscar 19 28 Feb 02:14:53 02:20:02 83° 103° (ESE) 02:25:10 437.125/150
AO-7 28 Feb 02:43:25 02:47:36 15° 90° (E) 02:51:45 .
ITAMSAT 1 28 Feb 02:56:13 02:59:47 18° 93° (E) 03:03:19 435.822/435.867
PCSat 28 Feb 03:10:32 03:13:03 13° 257° (WSW) 03:15:34 145.827
MOZHAYETS 4 28 Feb 03:15:58 03:20:32 62° 74° (ENE) 03:25:08
ITUPSAT 1 28 Feb 03:16:59 03:21:34 44° 261° (W) 03:26:11 437.325
BEESAT 28 Feb 03:21:42 03:26:09 39° 261° (W) 03:30:39 436.000
Gurwin Techsat 1B 28 Feb 03:23:40 03:28:39 41° 290° (WNW) 03:33:36 435.225
KKS-1 28 Feb 03:26:42 03:29:56 20° 67° (ENE) 03:33:09 437.445
STARS 28 Feb 03:52:48 03:55:35 17° 66° (ENE) 03:58:25 437.465
Oscar 19 28 Feb 03:56:56 03:58:37 12° 299° (WNW) 04:00:17 437.125/150
RS-15 28 Feb 04:05:01 04:16:15 45° 252° (WSW) 04:27:01 29.354- 29.394
AO-85 28 Feb 04:10:11 04:14:48 82° 301° (WNW) 04:19:05 145.980
CUBESAT XI-V 28 Feb 04:23:30 04:27:59 50° 73° (ENE) 04:32:29 437.345
AO-7 28 Feb 04:33:02 04:41:24 84° 107° (ESE) 04:49:41 .
ITAMSAT 1 28 Feb 04:34:26 04:39:29 49° 289° (WNW) 04:44:29 435.822/435.867
M-CUBED/EXP-1 PRIME 28 Feb 04:53:58 04:57:07 48° 70° (ENE) 05:00:17 437.505
MOZHAYETS 4 28 Feb 04:56:30 04:58:04 11° 270° (W) 04:59:37
KKS-1 28 Feb 05:02:13 05:06:14 34° 262° (W) 05:10:17 437.445
BEESAT 3 28 Feb 05:09:22 05:12:25 22° 112° (ESE) 05:15:31 437.485
SO-50 28 Feb 05:23:07 05:23:53 10° 40° (NE) 05:24:38 436.795
STARS 28 Feb 05:27:29 05:31:36 40° 261° (W) 05:35:44 437.465
BEESAT 2 28 Feb 05:54:05 05:57:29 28° 113° (ESE) 06:00:55 435.950
LilacSat-2 28 Feb 05:56:38 05:58:54 15° 93° (E) 06:01:09 437.200
CUBESAT XI-V 28 Feb 06:03:03 06:05:36 15° 268° (W) 06:08:10 437.345
STRAND 1 28 Feb 06:04:12 06:07:24 17° 63° (ENE) 06:10:36 437.568
CUTE-I 28 Feb 06:05:11 06:09:14 21° 94° (E) 06:13:16 437.470
AO-7 28 Feb 06:27:23 06:33:09 21° 306° (NW) 06:38:56 .
DOVE 4 28 Feb 06:33:52 06:38:38 55° 100° (E) 06:43:37 437.250
KAITUO 1B 28 Feb 06:38:52 06:42:25 39° 98° (E) 06:45:55 145.475/437.950
BEESAT 3 28 Feb 06:46:30 06:49:53 27° 308° (NW) 06:53:18 437.485
XW-2F 28 Feb 06:48:43 06:52:31 67° 102° (ESE) 06:56:15 145.980 - 146.000
XW-2D 28 Feb 06:55:18 06:59:08 88° 92° (E) 07:02:55 145.860 - 145.880
ISS 28 Feb 06:55:28 06:58:40 51° 136° (SE) 07:01:53 437.550
XW-2B 28 Feb 07:00:26 07:04:16 82° 283° (WNW) 07:08:03 145.730 - 145.750
SO-50 28 Feb 07:00:36 07:05:07 76° 59° (ENE) 07:09:35 436.795
XW-2C 28 Feb 07:09:16 07:13:03 61° 285° (WNW) 07:16:46 145.795 - 145.815
NUDT-PHONESAT 28 Feb 07:09:47 07:13:33 76° 282° (WNW) 07:17:15 437.300
Tancredo 1 28 Feb 07:13:07 07:16:22 88° 142° (SE) 07:19:37 437.200
CUTE 1.7 + AOD 2 28 Feb 07:28:28 07:31:34 20° 94° (E) 07:34:39 437.475
LilacSat-2 28 Feb 07:29:50 07:33:16 32° 288° (WNW) 07:36:39 437.200
BEESAT 2 28 Feb 07:32:02 07:35:14 23° 310° (NW) 07:38:28 435.950
XW-2A 28 Feb 07:33:05 07:36:11 30° 97° (E) 07:39:16 145.665 - 145.685
HO-68 28 Feb 07:38:01 07:44:27 35° 97° (E) 07:50:50 435.675
O/OREOS (USA 219) 28 Feb 07:38:17 07:41:38 20° 59° (ENE) 07:45:00 437.305
STRAND 1 28 Feb 07:41:03 07:46:04 57° 259° (W) 07:51:10 437.568
CUTE-I 28 Feb 07:44:20 07:49:26 44° 290° (WNW) 07:54:30 437.470
AAUSAT CUBESAT 2 28 Feb 08:00:12 08:02:19 14° 92° (E) 08:04:26 437.432
DOVE 4 28 Feb 08:12:59 08:15:54 16° 294° (WNW) 08:18:55 437.250
KAITUO 1B 28 Feb 08:14:26 08:16:03 12° 294° (WNW) 08:17:39 145.475/437.950
SEEDS 28 Feb 08:18:53 08:22:57 50° 99° (E) 08:27:00 437.485
CUBEBUG 2 28 Feb 08:19:05 08:23:29 36° 97° (E) 08:27:45 437.445
ISS 28 Feb 08:32:46 08:35:19 20° 333° (NNW) 08:37:51 437.550
UWE-3 28 Feb 08:49:35 08:54:05 47° 99° (E) 08:58:28 435.000/436.395/437.385
Tancredo 1 28 Feb 08:51:00 08:53:01 15° 337° (NNW) 08:55:02 437.200
PRISM 28 Feb 08:58:22 09:02:08 38° 72° (ENE) 09:05:55 437.425
ZACube-1 28 Feb 09:03:25 09:07:39 38° 97° (E) 09:11:47 437.345
CUTE 1.7 + AOD 2 28 Feb 09:03:44 09:07:25 30° 289° (WNW) 09:11:04 437.475
XW-2A 28 Feb 09:07:00 09:08:39 13° 292° (WNW) 09:10:19 145.665 - 145.685
O/OREOS (USA 219) 28 Feb 09:16:55 09:21:11 38° 255° (WSW) 09:25:26 437.305
HO-68 28 Feb 09:25:35 09:32:10 42° 294° (WNW) 09:38:45 435.675
AAUSAT CUBESAT 2 28 Feb 09:34:05 09:37:57 40° 287° (WNW) 09:41:48 437.432
FO-29 28 Feb 09:47:34 09:54:10 39° 66° (ENE) 10:01:11 435.910
AO-73 28 Feb 09:49:46 09:54:17 69° 284° (WNW) 09:58:39 145.935
Oscar 11 28 Feb 09:52:19 09:56:38 74° 283° (WNW) 10:00:55 .
CUBEBUG 2 28 Feb 09:56:12 09:59:48 22° 293° (WNW) 10:03:23 437.445
SEEDS 28 Feb 09:56:25 09:58:11 12° 295° (WNW) 09:59:55 437.485
TIGRISAT 28 Feb 10:06:53 10:11:24 86° 75° (ENE) 10:16:03 435.000
UNISAT 6 28 Feb 10:07:37 10:12:08 86° 257° (WSW) 10:16:48 437.425
YUBILEINY 28 Feb 10:09:15 10:17:39 51° 89° (E) 10:26:01 435.215
AIST 2D 28 Feb 10:19:12 10:20:46 12° 67° (ENE) 10:22:20 435.315
UWE-3 28 Feb 10:27:13 10:30:06 16° 295° (WNW) 10:32:56 435.000/436.395/437.385
EO-79 28 Feb 10:29:02 10:30:53 13° 64° (ENE) 10:32:43 145.935-145.965
PRISM 28 Feb 10:35:16 10:37:34 15° 267° (W) 10:39:52 437.425
DELFI C3 28 Feb 10:37:17 10:41:11 69° 284° (WNW) 10:45:05 145.870
ZACube-1 28 Feb 10:40:28 10:43:36 19° 293° (WNW) 10:46:42 437.345
NANOSAT C BR1 28 Feb 10:42:55 10:45:37 17° 67° (ENE) 10:48:20 145.865
POLYITAN 1 28 Feb 10:46:11 10:49:17 20° 68° (ENE) 10:52:25 437.675
QB50P2 28 Feb 10:49:01 10:52:23 23° 69° (ENE) 10:55:45 145.880/145.840
FO-29 28 Feb 11:32:16 11:38:58 42° 264° (W) 11:46:16 435.910
DUCHIFAT 1 28 Feb 11:47:05 11:51:17 84° 77° (ENE) 11:55:32 145.980
AIST 2D 28 Feb 11:50:22 11:53:38 34° 262° (W) 11:56:56 435.315
LO-87 28 Feb 11:53:38 11:57:13 66° 283° (WNW) 12:00:47 145.935 - 145.965
Oscar 19 28 Feb 11:54:39 11:56:26 12° 61° (ENE) 11:58:12 437.125/150
EO-79 28 Feb 12:02:02 12:06:08 52° 260° (W) 12:10:19 145.935-145.965
Tancredo 1 28 Feb 12:06:46 12:07:58 12° 18° (NNE) 12:09:10 437.200
YUBILEINY 28 Feb 12:06:58 12:14:40 33° 288° (WNW) 12:22:24 435.215
50 SAT 28 Feb 12:09:47 12:10:58 11° 93° (E) 12:12:09 437.505
SPROUT 28 Feb 12:15:34 12:18:52 21° 95° (E) 12:22:09 437.525
NANOSAT C BR1 28 Feb 12:17:05 12:21:00 38° 262° (W) 12:24:58 145.865
POLYITAN 1 28 Feb 12:21:03 12:24:51 31° 263° (W) 12:28:40 437.675
ESTCUBE 1 28 Feb 12:21:45 12:26:15 80° 282° (WNW) 12:30:42 437.505/2401.250
QB50P2 28 Feb 12:24:25 12:28:01 27° 264° (W) 12:31:39 145.880/145.840
BUGSAT 1 28 Feb 12:30:24 12:34:27 88° 79° (ENE) 12:38:36 437.445
VELOX 1 28 Feb 12:32:26 12:36:36 40° 99° (E) 12:40:46 145.980
AO-85 28 Feb 12:43:12 12:46:58 45° 56° (NE) 12:50:48 145.980
Gurwin Techsat 1B 28 Feb 13:03:42 13:08:18 31° 68° (ENE) 13:12:55 435.225
ISS 28 Feb 13:24:49 13:27:52 34° 33° (NNE) 13:30:53 437.550
BEESAT 3 28 Feb 13:29:19 13:30:00 10° 43° (NE) 13:30:42 437.485
Oscar 19 28 Feb 13:29:51 13:35:01 82° 256° (WSW) 13:40:11 437.125/150
AO-7 28 Feb 13:40:27 13:46:16 21° 54° (NE) 13:52:03 .
50 SAT 28 Feb 13:41:03 13:44:12 33° 287° (WNW) 13:47:21 437.505
Tancredo 1 28 Feb 13:41:42 13:44:51 50° 36° (NE) 13:47:59 437.200
DX 1 28 Feb 13:48:39 13:52:58 64° 285° (WNW) 13:57:16 434.975-435.025
SPROUT 28 Feb 13:51:00 13:54:46 30° 289° (WNW) 13:58:30 437.525
UKube-1 28 Feb 13:53:42 13:58:01 80° 286° (WNW) 14:02:20 .
VELOX 1 28 Feb 14:09:50 14:12:43 17° 294° (WNW) 14:15:37 145.980
ITAMSAT 1 28 Feb 14:12:20 14:16:29 25° 66° (ENE) 14:20:40 435.822/435.867
BEESAT 2 28 Feb 14:14:15 14:16:07 13° 45° (NE) 14:18:00 435.950
AO-85 28 Feb 14:25:10 14:26:57 13° 250° (WSW) 14:28:46 145.980
PCSat 28 Feb 14:25:53 14:27:17 11° 102° (ESE) 14:28:42 145.827
Gurwin Techsat 1B 28 Feb 14:43:31 14:48:09 30° 264° (W) 14:52:49 435.225
ISS 28 Feb 15:01:33 15:04:12 22° 229° (SW) 15:06:49 437.550
BEESAT 3 28 Feb 15:04:09 15:08:11 86° 240° (WSW) 15:12:10 437.485
MOZHAYETS 4 28 Feb 15:13:56 15:16:50 16° 92° (E) 15:19:44
ITUPSAT 1 28 Feb 15:18:56 15:23:38 52° 100° (E) 15:28:16 437.325
Tancredo 1 28 Feb 15:19:02 15:20:47 14° 231° (SW) 15:22:31 437.200
NO-84 28 Feb 15:22:30 15:24:45 19° 124° (SE) 15:27:07 435.350 FM
BEESAT 28 Feb 15:23:05 15:27:49 60° 101° (ESE) 15:32:31 436.000
AO-7 28 Feb 15:29:37 15:38:00 85° 253° (WSW) 15:46:25 .
BEESAT 2 28 Feb 15:50:18 15:54:21 66° 241° (WSW) 15:58:19 435.950
ITAMSAT 1 28 Feb 15:50:54 15:55:42 38° 262° (W) 16:00:33 435.822/435.867
PCSat 28 Feb 16:04:28 16:09:52 84° 297° (WNW) 16:15:20 145.827
RS-15 28 Feb 16:13:08 16:23:37 39° 106° (ESE) 16:34:28 29.354- 29.394
CUBESAT XI-V 28 Feb 16:23:17 16:25:39 14° 91° (E) 16:28:01 437.345
MOZHAYETS 4 28 Feb 16:49:50 16:54:11 42° 288° (WNW) 16:58:29
KKS-1 28 Feb 16:54:16 16:58:37 49° 100° (E) 17:02:57 437.445
ITUPSAT 1 28 Feb 16:58:07 17:01:00 16° 296° (WNW) 17:03:51 437.325
NO-84 28 Feb 16:59:21 17:02:10 30° 323° (NW) 17:05:13 435.350 FM
BEESAT 28 Feb 17:02:35 17:05:03 14° 297° (WNW) 17:07:31 436.000
STARS 28 Feb 17:18:15 17:22:24 38° 98° (E) 17:26:33 437.465
KAITUO 1B 28 Feb 17:18:16 17:20:34 16° 68° (ENE) 17:22:52 145.475/437.950
CUTE-I 28 Feb 17:25:08 17:29:42 30° 68° (ENE) 17:34:19 437.470
AO-7 28 Feb 17:27:23 17:31:46 15° 269° (W) 17:36:10 .
XW-2F 28 Feb 17:28:13 17:31:21 24° 71° (ENE) 17:34:30 145.980 - 146.000
XW-2D 28 Feb 17:34:49 17:38:14 31° 72° (ENE) 17:41:40 145.860 - 145.880
DOVE 4 28 Feb 17:38:17 17:42:08 39° 72° (ENE) 17:46:03 437.250
XW-2B 28 Feb 17:39:51 17:43:22 35° 73° (ENE) 17:46:53 145.730 - 145.750
NUDT-PHONESAT 28 Feb 17:47:23 17:50:49 34° 73° (ENE) 17:54:17 437.300
XW-2C 28 Feb 17:48:27 17:52:08 45° 74° (ENE) 17:55:51 145.795 - 145.815
PCSat 28 Feb 17:51:27 17:54:05 14° 316° (NW) 17:56:45 145.827
CUBESAT XI-V 28 Feb 17:58:50 18:03:18 51° 286° (WNW) 18:07:43 437.345
HO-68 28 Feb 18:05:58 18:11:15 23° 60° (ENE) 18:16:33 435.675
M-CUBED/EXP-1 PRIME 28 Feb 18:07:02 18:10:54 53° 105° (ESE) 18:15:04 437.505
LilacSat-2 28 Feb 18:09:03 18:12:57 89° 280° (W) 18:16:51 437.200
CUTE 1.7 + AOD 2 28 Feb 18:20:47 18:22:33 12° 65° (ENE) 18:24:20 437.475
RS-15 28 Feb 18:23:42 18:35:29 62° 307° (NW) 18:47:47 29.354- 29.394
KKS-1 28 Feb 18:32:13 18:34:45 15° 295° (WNW) 18:37:17 437.445
KAITUO 1B 28 Feb 18:50:52 18:54:18 32° 263° (W) 18:57:45 145.475/437.950
STARS 28 Feb 18:55:25 18:58:26 18° 294° (WNW) 19:01:27 437.465
XW-2F 28 Feb 19:02:32 19:05:26 20° 265° (W) 19:08:20 145.980 - 146.000
CUTE-I 28 Feb 19:04:55 19:09:38 32° 263° (W) 19:14:24 437.470
SEEDS 28 Feb 19:08:53 19:12:29 28° 71° (ENE) 19:16:06 437.485
XW-2D 28 Feb 19:10:06 19:12:29 16° 267° (W) 19:14:53 145.860 - 145.880
XW-2B 28 Feb 19:15:34 19:17:39 14° 267° (W) 19:19:46 145.730 - 145.750
CUBEBUG 2 28 Feb 19:15:36 19:19:12 24° 68° (ENE) 19:22:53 437.445
DOVE 4 28 Feb 19:17:49 19:20:03 14° 268° (W) 19:22:17 437.250
NUDT-PHONESAT 28 Feb 19:22:54 19:24:51 14° 267° (W) 19:26:49 437.300
XW-2C 28 Feb 19:25:34 19:26:34 11° 269° (W) 19:27:33 145.795 - 145.815
XW-2A 28 Feb 19:34:54 19:38:12 48° 261° (W) 19:41:32 145.665 - 145.685
M-CUBED/EXP-1 PRIME 28 Feb 19:43:19 19:45:01 12° 298° (WNW) 19:46:45 437.505
UWE-3 28 Feb 19:44:40 19:48:36 30° 70° (ENE) 19:52:37 435.000/436.395/437.385
HO-68 28 Feb 19:51:12 19:58:19 68° 257° (WSW) 20:05:29 435.675
STRAND 1 28 Feb 19:53:12 19:58:18 57° 101° (E) 20:03:19 437.568
CUTE 1.7 + AOD 2 28 Feb 19:53:43 19:57:54 54° 260° (W) 20:02:05 437.475
ZACube-1 28 Feb 19:57:28 20:01:07 25° 69° (ENE) 20:04:49 437.345
AAUSAT CUBESAT 2 28 Feb 20:21:42 20:25:51 83° 258° (WSW) 20:30:01 437.432
YUBILEINY 28 Feb 20:22:28 20:28:55 22° 67° (ENE) 20:35:19 435.215
JUGNU 28 Feb 20:36:21 20:38:03 11° 173° (S) 20:39:45 437.505
RS-15 28 Feb 20:42:11 20:51:19 23° 336° (NNW) 21:00:35 29.354- 29.394
AO-73 28 Feb 20:42:42 20:47:09 72° 76° (ENE) 20:51:43 145.935
Oscar 11 28 Feb 20:44:48 20:49:06 66° 76° (ENE) 20:53:26 .
SEEDS 28 Feb 20:44:52 20:48:08 22° 265° (W) 20:51:25 437.485
CUBEBUG 2 28 Feb 20:51:44 20:55:38 30° 264° (W) 20:59:40 437.445
SO-50 28 Feb 21:13:03 21:17:21 37° 115° (ESE) 21:21:38 436.795
DELFI C3 28 Feb 21:20:42 21:24:31 48° 74° (ENE) 21:28:19 145.870
UWE-3 28 Feb 21:21:28 21:25:01 23° 266° (W) 21:28:40 435.000/436.395/437.385
ZACube-1 28 Feb 21:33:23 21:37:14 28° 264° (W) 21:41:11 437.345
STRAND 1 28 Feb 21:33:45 21:36:58 17° 297° (WNW) 21:40:09 437.568
O/OREOS (USA 219) 28 Feb 21:48:33 21:52:22 28° 103° (ESE) 21:56:13 437.305
NO-84 28 Feb 21:57:19 21:59:33 14° 28° (NNE) 22:01:52 435.350 FM
TIGRISAT 28 Feb 22:00:56 22:04:31 21° 94° (E) 22:08:01 435.000
UNISAT 6 28 Feb 22:01:42 22:05:27 23° 94° (E) 22:09:09 437.425
PRISM 28 Feb 22:16:03 22:20:08 82° 102° (ESE) 22:24:14 437.425
YUBILEINY 28 Feb 22:17:52 22:26:32 73° 267° (W) 22:35:09 435.215
JUGNU 28 Feb 22:23:56 22:26:09 12° 183° (S) 22:28:23 437.505
LO-87 28 Feb 22:28:08 22:31:19 33° 73° (ENE) 22:34:32 145.935 - 145.965
FO-29 28 Feb 22:44:27 22:51:14 38° 95° (E) 22:57:20 435.910
SO-50 28 Feb 22:54:02 22:57:54 25° 311° (NW) 23:01:43 436.795
DELFI C3 28 Feb 22:58:41 22:59:33 11° 269° (W) 23:00:24 145.870
RS-15 28 Feb 23:02:15 23:10:27 19° 13° (NNE) 23:18:32 29.354- 29.394
SPROUT 28 Feb 23:08:26 23:10:33 14° 65° (ENE) 23:12:40 437.525
AIST 2D 28 Feb 23:17:50 23:20:19 18° 94° (E) 23:22:46 435.315
ESTCUBE 1 28 Feb 23:19:05 23:23:35 75° 75° (ENE) 23:28:05 437.505/2401.250
O/OREOS (USA 219) 28 Feb 23:28:03 23:31:43 24° 299° (WNW) 23:35:26 437.305
VELOX 1 28 Feb 23:28:06 23:31:52 29° 70° (ENE) 23:35:38 145.980
SRMSAT 28 Feb 23:30:38 23:32:58 12° 175° (S) 23:35:19 437.500
NO-84 28 Feb 23:33:43 23:37:47 72° 44° (NE) 23:42:07 435.350 FM
DUCHIFAT 1 28 Feb 23:34:08 23:36:37 15° 93° (E) 23:39:06 145.980
TIGRISAT 28 Feb 23:37:00 23:41:14 34° 289° (WNW) 23:45:24 435.000
UNISAT 6 28 Feb 23:38:01 23:42:08 31° 290° (WNW) 23:46:12 437.425
EO-79 28 Feb 23:48:38 23:52:18 27° 96° (E) 23:55:56 145.935-145.965
NANOSAT C BR1 01 Mar 00:02:52 00:06:50 36° 98° (E) 00:10:45 145.865
LO-87 01 Mar 00:03:25 00:04:53 12° 267° (W) 00:06:22 145.935 - 145.965
POLYITAN 1 01 Mar 00:07:04 00:11:13 45° 99° (E) 00:15:18 437.675
QB50P2 01 Mar 00:10:10 00:14:23 53° 100° (E) 00:18:33 145.880/145.840
50 SAT 01 Mar 00:12:43 00:16:09 61° 76° (ENE) 00:19:36 437.505
BUGSAT 1 01 Mar 00:15:06 00:17:33 15° 93° (E) 00:19:59 437.445
YUBILEINY 01 Mar 00:19:16 00:21:39 11° 285° (WNW) 00:24:02 435.215
FO-29 01 Mar 00:29:23 00:36:10 39° 294° (WNW) 00:42:20 435.910
SPROUT 01 Mar 00:41:54 00:46:01 49° 260° (W) 00:50:10 437.525
DX 1 01 Mar 00:41:59 00:46:18 86° 80° (E) 00:50:39 434.975-435.025
UKube-1 01 Mar 00:46:03 00:50:17 67° 75° (ENE) 00:54:34 .
AIST 2D 01 Mar 00:50:39 00:53:29 23° 289° (WNW) 00:56:18 435.315
PCSat 01 Mar 00:54:08 00:59:27 52° 59° (ENE) 01:04:44 145.827
VELOX 1 01 Mar 01:04:50 01:08:17 23° 265° (W) 01:11:45 145.980
DUCHIFAT 1 01 Mar 01:08:27 01:12:27 40° 288° (WNW) 01:16:26 145.980
NO-84 01 Mar 01:12:54 01:15:07 14° 237° (WSW) 01:17:23 435.350 FM
RS-15 01 Mar 01:15:55 01:27:34 44° 45° (NE) 01:38:45 29.354- 29.394
SRMSAT 01 Mar 01:18:58 01:21:15 12° 186° (S) 01:23:33 437.500
Gurwin Techsat 1B 01 Mar 01:23:02 01:25:34 13° 91° (E) 01:28:05 435.225
EO-79 01 Mar 01:24:31 01:27:55 23° 291° (WNW) 01:31:18 145.935-145.965
NANOSAT C BR1 01 Mar 01:39:22 01:42:14 18° 293° (WNW) 01:45:05 145.865
Oscar 19 01 Mar 01:43:21 01:48:09 40° 99° (E) 01:52:56 437.125/150
POLYITAN 1 01 Mar 01:44:10 01:46:35 15° 295° (WNW) 01:48:59 437.675
QB50P2 01 Mar 01:47:47 01:49:40 13° 295° (WNW) 01:51:34 145.880/145.840
BUGSAT 1 01 Mar 01:49:03 01:53:04 41° 288° (WNW) 01:57:03 437.445
